Weather Roundup
Issued by NWS

Home | Current Version | Previous Version | Graphics & Text | Print | Product List | Glossary Off
Versions: 1 2 3 4 5 6 7 8 9 10 11 12 13 14 15 16 17 18 19 20 21 22 23 24 25 26 27 28 29 30 31 32 33 34 35 36 37 38 39 40 41 42 43 44 45 46 47 48 49 50

000
NZUS93 KARX 271410
HRRWXR

CURRENT HOURLY OBSERVATIONS ACROSS
MUCH OF THE UPPER MISSISSIPPI VALLEY
NATIONAL WEATHER SERVICE LA CROSSE WI
900 AM CDT WED JUL 27 2016


...SOUTHEAST MINNESOTA...


CITY           SKY/WX    TMP DP  RH WIND       PRES   REMARKS
ROCHESTER      PTSUNNY   72  69  90 S6        30.04R
ROCHESTER/MAYO FAIR      74  66  77 S5        30.04R
WINONA         MOSUNNY   77  68  73 CALM      30.01R
AUSTIN         CLOUDY    72  66  83 S5        30.03S
ALBERT LEA     MOSUNNY   73  66  78 S5        30.01F
DODGE CENTER   CLOUDY    72  68  88 S6        30.02F
PRESTON        MOSUNNY   74  65  74 SW6       30.05S
OWATONNA       CLOUDY    73  64  73 S7        30.00F
FARIBAULT      MOSUNNY   72  66  83 N5        29.99F
$$

...ELSEWHERE IN MINNESOTA...


CITY           SKY/WX    TMP DP  RH WIND       PRES   REMARKS
MINNEAPOLIS    CLOUDY    76  68  76 CALM      29.98S
INTNL FALLS    CLOUDY    67  56  67 E8        30.05R
DULUTH         CLOUDY    67  56  67 E12       30.00S
RED WING       CLOUDY    75  66  73 CALM      29.98S
REDWOOD FALLS  CLOUDY    73  67  81 S3        29.93F
MANKATO        MOSUNNY   70  63  78 S7        29.99R
WORTHINGTON    CLOUDY    71  67  87 S6        29.99S
FAIRMONT       CLOUDY    70  64  83 S7        29.97F
$$

...SOUTHWEST WISCONSIN...


CITY           SKY/WX    TMP DP  RH WIND       PRES   REMARKS
LA CROSSE      MOSUNNY   78  69  73 S5        30.01R
PRAIRIE DU CHI MOSUNNY   74  68  80 CALM      30.02S
BOSCOBEL       SUNNY     75  69  81 CALM      30.02S
LONE ROCK      SUNNY     73  68  84 CALM      30.03S
PLATTEVILLE    SUNNY     77  69  78 CALM      30.04S
FORT MC COY    SUNNY     74  68  82 SW3       30.02S
CAMP DOUGLAS   MOSUNNY   77  72  83 W6        30.01F
MAUSTON-NEW LI PTSUNNY   77  70  79 W5        30.01S
VIROQUA        FAIR      75  68  77 CALM      30.04S
WIS DELLS      PTSUNNY   75  66  73 W5        30.03S
$$

...ELSEWHERE IN WISCONSIN...


CITY           SKY/WX    TMP DP  RH WIND       PRES   REMARKS
MILWAUKEE      MOSUNNY   83  66  56 W8        30.00S
MADISON        PTSUNNY   78  67  68 NW5       30.01F
GREEN BAY      SUNNY     77  68  73 SW6       29.99S
EAU CLAIRE     CLOUDY    74  69  85 NE3       30.01R
BLACK RVR FLS  FAIR      77  71  82 SW3       30.00F
MEDFORD        PTSUNNY   65  65 100 NE6       30.05F
WAUSAU         TSTM      70  63  78 N13G24    30.05R
WIS RAPIDS     LGT RAIN  77  67  71 CALM      30.02F
MARSHFIELD     MOSUNNY   78  69  73 W9        30.01S
RICE LAKE      CLOUDY    69  64  83 S3        30.02R
$$

...NORTHEAST IOWA...


CITY           SKY/WX    TMP DP  RH WIND       PRES   REMARKS
WATERLOO       SUNNY     77  68  73 CALM      30.02R
DUBUQUE        SUNNY     77  66  68 CALM      30.04S
DECORAH        SUNNY     75  68  78 NW5       30.04R
MASON CITY     PTSUNNY   73  67  81 E3        30.03F
CHARLES CITY   SUNNY     73  70  88 CALM      30.05R
OELWEIN        NOT AVBL
$$

...ELSEWHERE IN IOWA...


CITY           SKY/WX    TMP DP  RH WIND       PRES   REMARKS
DES MOINES     PTSUNNY   76  66  71 SE10      29.98S
IOWA CITY      MOSUNNY   75  69  81 CALM      30.03R
FORT DODGE     CLOUDY    70  66  88 SE3       30.01R
MARSHALLTOWN   MOSUNNY   74  70  87 E5        30.01F
CEDAR RAPIDS   MOSUNNY   75  72  90 CALM      30.02R
$$

...NORTHERN ILLINOIS...


CITY           SKY/WX    TMP DP  RH WIND       PRES   REMARKS
CHICAGO-OHARE  MOSUNNY   81  65  58 CALM      30.01F
CHICAGO-MIDWAY MOSUNNY   83  64  52 CALM      30.01F
MOLINE         SUNNY     79  67  66 NE5       30.01S
ROCKFORD       PTSUNNY   77  66  68 CALM      30.04R
PEORIA         SUNNY     79  69  71 SE6       30.02S
$$

NOTE: "FAIR" INDICATES FEW OR NO CLOUDS BELOW 12,000 FEET WITH NO
SIGNIFICANT WEATHER AND/OR OBSTRUCTIONS TO VISIBILITY. WIND
SPEEDS ARE IN MILES-PER-HOUR.




USA.gov is the U.S. government's official web portal to all federal, state and local government web resources and services.